This is the latest recevied weather packets stored in our database for station/object DC1NF-7. If no packets are shown the sender has not sent any weather packets the latest 10 day(s).
| Time | Temp. | Humidity | Pressure | Rain* | Wind** | Luminosity | Snow |
|---|---|---|---|---|---|---|---|
| 1777811747 | 25° C | 33% | 1014 hPa | 0 mm | - | 841 W/m² | - |
| 1777811144 | 25° C | 33% | 1014.1 hPa | 0 mm | - | 721 W/m² | - |
| 1777810537 | 26.11° C | 31% | 1014.1 hPa | 0 mm | - | 773 W/m² | - |
| 1777809934 | 25° C | 32% | 1014.1 hPa | 0 mm | - | 569 W/m² | - |
| 1777809335 | 24.44° C | 33% | 1014.3 hPa | 0 mm | - | 482 W/m² | - |
| 1777808731 | 25.56° C | 32% | 1014.4 hPa | 0 mm | - | 707 W/m² | - |
| 1777808127 | 24.44° C | 34% | 1014.4 hPa | 0 mm | - | 690 W/m² | - |
| 1777807520 | 25° C | 33% | 1014.6 hPa | 0 mm | - | 658 W/m² | - |
| 1777806916 | 24.44° C | 31% | 1014.7 hPa | 0 mm | - | 809 W/m² | - |
| 1777806376 | 24.44° C | 33% | 1014.7 hPa | 0 mm | - | 660 W/m² | - |
| 1777805769 | 24.44° C | 34% | 1014.8 hPa | 0 mm | - | 691 W/m² | - |
| 1777805170 | 23.89° C | 35% | 1015 hPa | 0 mm | - | 539 W/m² | - |
| 1777804563 | 23.89° C | 33% | 1015 hPa | 0 mm | - | 766 W/m² | - |
| 1777803958 | 23.89° C | 31% | 1015.1 hPa | 0 mm | - | 881 W/m² | - |
| 1777803357 | 23.89° C | 31% | 1015.1 hPa | 0 mm | - | 757 W/m² | - |
| 1777802749 | 23.33° C | 33% | 1015.3 hPa | 0 mm | - | 617 W/m² | - |
| 1777802148 | 23.33° C | 36% | 1015.5 hPa | 0 mm | - | 704 W/m² | - |
| 1777801541 | 23.33° C | 35% | 1015.6 hPa | 0 mm | - | 720 W/m² | - |
| 1777800940 | 23.33° C | 34% | 1015.8 hPa | 0 mm | - | 817 W/m² | - |
| 1777800342 | 22.22° C | 38% | 1015.9 hPa | 0 mm | - | 845 W/m² | - |
| 1777799732 | 21.11° C | 41% | 1016 hPa | 0 mm | - | 717 W/m² | - |
| 1777799131 | 20° C | 46% | 1016.1 hPa | 0 mm | - | 589 W/m² | - |
| 1777798526 | 19.44° C | 46% | 1016.1 hPa | 0 mm | - | 604 W/m² | - |
| 1777797922 | 19.44° C | 46% | 1016.1 hPa | 0 mm | - | 601 W/m² | - |
| 1777797316 | 19.44° C | 46% | 1016.2 hPa | 0 mm | - | 557 W/m² | - |
* Rain latest hour (hover to see other rain measurements)
** Current wind speed in m/s (hover to see current wind gust speed)